Regional Weather Roundup
Issued by NWS

Home | Current Version | Previous Version | Graphics & Text | Print | Product List | Glossary On
Versions: 1 2 3 4 5 6 7 8 9 10 11 12 13 14 15 16 17 18 19 20 21 22 23 24 25 26 27 28 29 30 31 32 33 34 35 36 37 38 39 40 41 42 43 44 45 46 47 48 49 50
000
ASUS43 KLOT 170900
RWRIL

ILLINOIS REGIONAL WEATHER ROUNDUP
NATIONAL WEATHER SERVICE CHICAGO/ROMEOVILLE IL
400 AM CDT WED SEP 17 2014

NOTE: "FAIR" INDICATES FEW OR NO CLOUDS BELOW 12,000 FEET WITH NO
SIGNIFICANT WEATHER AND/OR OBSTRUCTIONS TO VISIBILITY.

* THESE STATIONS ARE NOT UNDER NWS QUALITY CONTROL. THEY ALSO MAY NOT
  REPORT WEATHER SUCH AS PRECIPITATION OR FOG.

ILZ001-002-007-009-015-016-024-171000-
NORTHWEST ILLINOIS

CITY           SKY/WX    TMP DP  RH WIND       PRES   REMARKS
MOLINE         CLEAR     46  43  89 CALM      30.04F
STERLING*      CLEAR     43  39  87 SE3       30.05F
$$

ILZ003-004-008-010-011-017-018-171000-
NORTH CENTRAL ILLINOIS

CITY           SKY/WX    TMP DP  RH WIND       PRES   REMARKS
ROCKFORD       PTCLDY    44  41  89 CALM      30.07F
$$

ILZ005-006-012>014-019>023-171000-
NORTHEAST ILLINOIS

CITY           SKY/WX    TMP DP  RH WIND       PRES   REMARKS
CHICAGO-OHARE  CLEAR     52  46  80 CALM      30.05F
CHICAGO-MIDWAY PTCLDY    52  47  83 CALM      30.06S
AURORA         CLEAR     41  37  86 CALM      30.06F
WAUKEGAN       CLEAR     44  42  93 CALM      30.05S FOG
DUPAGE AIRPORT CLEAR     43  40  89 CALM      30.06S
WHEELING       CLEAR     47  43  86 CALM      30.06F
NORTHERLY ISL    N/A     53  46  77 S3          N/A
$$

LMZ740>746-171000-
SOUTHERN LAKE MICHIGAN

STATION/POSITION SKY/WX   TEMP    WIND        PRES    VSBY  WAVE
                          AIR SEA DIR/SP/G                  HT/PER
                          (F)     (DEG/KT/KT) (MB)    (MI)  (FT/S)
SOUTHERN BUOY              61 64  220/  6/  8 1018.0F         0
WAUKEGAN HARBOR            54     250/  4/  6   N/A
HARRISON CRIB              57     180/ 13/ 14   N/A
BURNHAM HARBOR             53     210/  2/  4   N/A
CALUMET HARBOR             53     180/  3/  4 1016.9F
MICHIGAN CITY              50     130/  8/  9   N/A
MICHIGAN CITY 6N           55 64  160/ 10/ 14   N/A           1/ 2
ST. JOSEPH                 58 66  150/  8/ 10   N/A           1/ 3
$$

ILZ025>027-034>036-040-047-049-050-058-095>099-171000-
WEST-CENTRAL ILLINOIS

CITY           SKY/WX    TMP DP  RH WIND       PRES   REMARKS
QUINCY         CLEAR     53  49  86 S7        30.04F
$$

ILZ028>032-037-038-041>044-048-051>054-059>061-171000-
CENTRAL ILLINOIS

CITY           SKY/WX    TMP DP  RH WIND       PRES   REMARKS
DECATUR        CLEAR     45  43  93 CALM      30.07F
PEORIA         CLEAR     50  46  86 CALM      30.06F
SPRINGFIELD    CLEAR     46  44  93 CALM      30.06F
TAYLORVILLE    NOT AVBL
$$

ILZ033-039-045-046-055>057-062-063-171000-
EAST-CENTRAL ILLINOIS

CITY           SKY/WX    TMP DP  RH WIND       PRES   REMARKS
CHAMPAIGN      CLEAR     46  44  93 SW6       30.07F
MATTOON        CLEAR     52  48  86 W5        30.06F
$$

ILZ079-100>102-171000-
SOUTHWEST ILLINOIS

CITY           SKY/WX    TMP DP  RH WIND       PRES   REMARKS
BELLEVILLE     CLEAR     48  48 100 CALM      30.07F FOG
CAHOKIA*       CLEAR     47  47 100 CALM      30.08S FOG
$$

ILZ064>066-069>071-074>076-080>082-084>086-088>090-092>094-171000-
SOUTH-CENTRAL ILLINOIS

CITY           SKY/WX    TMP DP  RH WIND       PRES   REMARKS
CARBONDALE     FOG       44  43  96 CALM      30.08F VSB 1
MT. VERNON     CLEAR     45  39  81 CALM      30.09S
$$

ILZ067-068-072-073-078-083-087-091-171000-
SOUTHEAST ILLINOIS

CITY           SKY/WX    TMP DP  RH WIND       PRES   REMARKS
LAWRENCEVILLE  FOG       44  43  96 CALM      30.09S VSB 3/4
$$

ABBREVIATIONS USED IN REMARKS
   TC - TEMPERATURE IN CELSIUS
  WCI - WIND CHILL INDEX
   HX - HEAT INDEX
  VSB - VISIBILITY
$$



USA.gov is the U.S. government's official web portal to all federal, state and local government web resources and services.